| time (UTC) | temp F | wind direction | speed MPH | gust MPH | rain 1hr in | rain 24hr in | rain mn in | humidity % | barometer mb |
| 20260905103937 | 87 | 265 | 6.0 | 12.0 | 0.00 | 0.00 | 0.00 | 57 | 1015.5 |
| 20260905101435 | 86 | 296 | 10.0 | 14.0 | 0.00 | 0.00 | 0.00 | 57 | 1015.7 |
| 20260905100936 | 87 | 281 | 9.0 | 12.0 | 0.00 | 0.00 | 0.00 | 58 | 1015.7 |
| 20260905095935 | 86 | 280 | 6.0 | 12.0 | 0.00 | 0.00 | 0.00 | 59 | 1015.6 |
| 20260905095435 | 86 | 284 | 6.0 | 12.0 | 0.00 | 0.00 | 0.00 | 60 | 1015.7 |
| 20260905094936 | 85 | 291 | 6.0 | 12.0 | 0.00 | 0.00 | 0.00 | 61 | 1015.8 |
| 20260905094436 | 85 | 298 | 5.0 | 10.0 | 0.00 | 0.00 | 0.00 | 60 | 1015.7 |
| 20260905093435 | 85 | 265 | 8.0 | 12.0 | 0.00 | 0.00 | 0.00 | 57 | 1015.7 |
| 20260905092935 | 85 | 301 | 6.0 | 9.0 | 0.00 | 0.00 | 0.00 | 59 | 1015.7 |
| 20260905092435 | 86 | 271 | 6.0 | 13.0 | 0.00 | 0.00 | 0.00 | 59 | 1015.7 |
| 20260905091436 | 84 | 305 | 5.0 | 12.0 | 0.00 | 0.00 | 0.00 | 61 | 1015.8 |
| 20260905090935 | 84 | 300 | 6.0 | 10.0 | 0.00 | 0.00 | 0.00 | 61 | 1015.8 |
| 20260905090435 | 83 | 298 | 7.0 | 12.0 | 0.00 | 0.00 | 0.00 | 63 | 1015.8 |
| 20260905085436 | 84 | 318 | 6.0 | 12.0 | 0.00 | 0.00 | 0.00 | 62 | 1015.9 |
| 20260905084935 | 84 | 313 | 6.0 | 12.0 | 0.00 | 0.00 | 0.00 | 63 | 1015.8 |
| 20260905083942 | 83 | 283 | 5.0 | 9.0 | 0.00 | 0.00 | 0.00 | 64 | 1015.5 |
| 20260905083437 | 83 | 288 | 6.0 | 12.0 | 0.00 | 0.00 | 0.00 | 64 | 1015.5 |
| 20260905082935 | 82 | 290 | 6.0 | 8.0 | 0.00 | 0.00 | 0.00 | 66 | 1015.5 |
| 20260905082438 | 82 | 293 | 4.0 | 10.0 | 0.00 | 0.00 | 0.00 | 65 | 1015.5 |
| 20260905081935 | 82 | 290 | 6.0 | 10.0 | 0.00 | 0.00 | 0.00 | 65 | 1015.6 |
| 20260905080935 | 82 | 308 | 8.0 | 12.0 | 0.00 | 0.00 | 0.00 | 72 | 1015.6 |
| 20260905074938 | 81 | 318 | 3.0 | 6.0 | 0.00 | 0.00 | 0.00 | 73 | 1015.5 |
| 20260905073435 | 79 | 287 | 2.0 | 3.0 | 0.00 | 0.00 | 0.00 | 74 | 1015.4 |
| 20260905072935 | 79 | 303 | 2.0 | 5.0 | 0.00 | 0.00 | 0.00 | 75 | 1015.4 |
| 20260905072435 | 78 | 304 | 3.0 | 5.0 | 0.00 | 0.00 | 0.00 | 75 | 1015.4 |
| 20260905070936 | 77 | 295 | 2.0 | 3.0 | 0.00 | 0.00 | 0.00 | 76 | 1015.4 |
| 20260905070436 | 76 | 287 | 2.0 | 3.0 | 0.00 | 0.00 | 0.00 | 78 | 1015.3 |
| 20260905065934 | 76 | 280 | 1.0 | 3.0 | 0.00 | 0.00 | 0.00 | 79 | 1015.3 |
| 20260905065435 | 75 | 300 | 2.0 | 5.0 | 0.00 | 0.00 | 0.00 | 79 | 1015.4 |
| 20260905064935 | 75 | 298 | 3.0 | 3.0 | 0.00 | 0.00 | 0.00 | 80 | 1015.4 |
| 20260905064435 | 74 | 313 | 3.0 | 3.0 | 0.00 | 0.00 | 0.00 | 80 | 1015.4 |
| 20260905063936 | 74 | 297 | 3.0 | 3.0 | 0.00 | 0.00 | 0.00 | 81 | 1015.3 |
| 20260905063436 | 74 | 298 | 1.0 | 3.0 | 0.00 | 0.00 | 0.00 | 81 | 1015.3 |
| 20260905062934 | 73 | 30 | 0.0 | 0.0 | 0.00 | 0.00 | 0.00 | 83 | 1015.2 |
| 20260905062435 | 73 | 71 | 0.0 | 0.0 | 0.00 | 0.00 | 0.00 | 83 | 1015.1 |
| 20260905061935 | 74 | 71 | 0.0 | 0.0 | 0.00 | 0.00 | 0.00 | 82 | 1015.1 |
| 20260905060935 | 73 | 71 | 0.0 | 0.0 | 0.00 | 0.00 | 0.00 | 83 | 1014.9 |
| 20260905060435 | 72 | 71 | 0.0 | 0.0 | 0.00 | 0.00 | 0.00 | 84 | 1015.0 |
| 20260905055934 | 72 | 71 | 0.0 | 0.0 | 0.00 | 0.00 | 0.00 | 84 | 1014.9 |
| 20260905055435 | 71 | 344 | 0.0 | 0.0 | 0.00 | 0.00 | 0.00 | 86 | 1014.9 |
| 20260905054938 | 71 | 344 | 0.0 | 0.0 | 0.00 | 0.00 | 0.00 | 87 | 1014.9 |
| 20260905054443 | 70 | 344 | 0.0 | 0.0 | 0.00 | 0.00 | 0.00 | 88 | 1014.8 |
| 20260905053935 | 70 | 338 | 0.0 | 0.0 | 0.00 | 0.00 | 0.00 | 89 | 1014.8 |
| 20260905052950 | 68 | 327 | 0.0 | 0.0 | 0.00 | 0.00 | 0.00 | 90 | 1014.7 |
| 20260905052435 | 68 | 319 | 0.0 | 0.0 | 0.00 | 0.00 | 0.00 | 91 | 1014.8 |
| 20260905051934 | 67 | 319 | 0.0 | 0.0 | 0.00 | 0.00 | 0.00 | 91 | 1014.7 |
| 20260905051435 | 67 | 319 | 0.0 | 0.0 | 0.00 | 0.00 | 0.00 | 92 | 1014.8 |
| 20260905050934 | 67 | 38 | 0.0 | 0.0 | 0.00 | 0.00 | 0.00 | 91 | 1014.6 |
| 20260905045942 | 67 | 17 | 1.0 | 3.0 | 0.00 | 0.00 | 0.00 | 92 | 1014.4 |
| 20260905044435 | 67 | 295 | 2.0 | 3.0 | 0.00 | 0.00 | 0.00 | 91 | 1014.4 |
| 20260905043437 | 67 | 319 | 1.0 | 3.0 | 0.00 | 0.00 | 0.00 | 91 | 1014.2 |
| 20260905042934 | 67 | 329 | 0.0 | 0.0 | 0.00 | 0.00 | 0.00 | 91 | 1014.2 |
| 20260905041434 | 68 | 329 | 0.0 | 0.0 | 0.00 | 0.00 | 0.00 | 90 | 1014.2 |
| 20260905040935 | 68 | 329 | 0.0 | 0.0 | 0.00 | 0.00 | 0.00 | 90 | 1014.2 |
| 20260905040434 | 68 | 329 | 0.0 | 0.0 | 0.00 | 0.00 | 0.00 | 90 | 1014.3 |
| 20260905035934 | 69 | 329 | 0.0 | 2.0 | 0.00 | 0.00 | 0.00 | 90 | 1014.3 |
| 20260905035434 | 69 | 327 | 1.0 | 3.0 | 0.00 | 0.00 | 0.00 | 90 | 1014.3 |
| 20260905034934 | 69 | 326 | 0.0 | 2.0 | 0.00 | 0.00 | 0.00 | 90 | 1014.2 |
| 20260905034435 | 69 | 326 | 2.0 | 3.0 | 0.00 | 0.00 | 0.00 | 90 | 1014.2 |
| 20260905033934 | 69 | 330 | 2.0 | 3.0 | 0.00 | 0.00 | 0.00 | 90 | 1014.3 |
| 20260905033434 | 69 | 338 | 1.0 | 3.0 | 0.00 | 0.00 | 0.00 | 90 | 1014.2 |
| 20260905032434 | 69 | 342 | 2.0 | 3.0 | 0.00 | 0.00 | 0.00 | 90 | 1014.4 |
| 20260905031935 | 69 | 337 | 2.0 | 3.0 | 0.00 | 0.00 | 0.00 | 89 | 1014.4 |
| 20260905031435 | 69 | 331 | 2.0 | 3.0 | 0.00 | 0.00 | 0.00 | 90 | 1014.4 |
| 20260905030934 | 69 | 340 | 1.0 | 3.0 | 0.00 | 0.00 | 0.00 | 90 | 1014.4 |
| 20260905025935 | 69 | 282 | 0.0 | 2.0 | 0.00 | 0.00 | 0.00 | 89 | 1014.3 |
| 20260905024934 | 69 | 267 | 1.0 | 2.0 | 0.00 | 0.00 | 0.00 | 89 | 1014.4 |
| 20260905024435 | 69 | 215 | 0.0 | 2.0 | 0.00 | 0.00 | 0.00 | 89 | 1014.3 |
| 20260905023434 | 69 | 215 | 1.0 | 3.0 | 0.00 | 0.00 | 0.00 | 89 | 1014.3 |
| 20260905022934 | 69 | 11 | 2.0 | 2.0 | 0.00 | 0.00 | 0.00 | 89 | 1014.4 |
| 20260905022435 | 69 | 11 | 0.0 | 0.0 | 0.00 | 0.00 | 0.00 | 89 | 1014.3 |
| 20260905021935 | 69 | 11 | 0.0 | 0.0 | 0.00 | 0.00 | 0.00 | 90 | 1014.3 |
| 20260905021434 | 69 | 11 | 1.0 | 1.0 | 0.00 | 0.00 | 0.00 | 89 | 1014.2 |
| 20260905020935 | 69 | 11 | 0.0 | 1.0 | 0.00 | 0.00 | 0.00 | 89 | 1014.3 |
| 20260905020434 | 69 | 11 | 0.0 | 0.0 | 0.00 | 0.00 | 0.00 | 89 | 1014.3 |
| 20260905015434 | 70 | 11 | 0.0 | 0.0 | 0.00 | 0.00 | 0.00 | 88 | 1014.3 |
| 20260905013934 | 70 | 26 | 0.0 | 0.0 | 0.00 | 0.00 | 0.00 | 87 | 1014.3 |
| 20260905013434 | 70 | 26 | 1.0 | 2.0 | 0.00 | 0.00 | 0.00 | 87 | 1014.3 |
| 20260905012934 | 71 | 26 | 1.0 | 2.0 | 0.00 | 0.00 | 0.00 | 86 | 1014.4 |
| 20260905012435 | 71 | 26 | 0.0 | 2.0 | 0.00 | 0.00 | 0.00 | 86 | 1014.4 |
| 20260905011434 | 71 | 26 | 2.0 | 3.0 | 0.00 | 0.00 | 0.00 | 85 | 1014.3 |
| 20260905010934 | 71 | 26 | 1.0 | 3.0 | 0.00 | 0.00 | 0.00 | 86 | 1014.3 |
| 20260905010434 | 71 | 26 | 1.0 | 3.0 | 0.00 | 0.00 | 0.00 | 86 | 1014.3 |
| 20260905005935 | 71 | 23 | 1.0 | 3.0 | 0.00 | 0.00 | 0.00 | 86 | 1014.4 |
| 20260905004934 | 71 | 54 | 1.0 | 2.0 | 0.00 | 0.00 | 0.00 | 86 | 1014.4 |
| 20260905004435 | 71 | 54 | 0.0 | 0.0 | 0.00 | 0.00 | 0.00 | 86 | 1014.6 |
| 20260905003933 | 71 | 54 | 0.0 | 0.0 | 0.00 | 0.00 | 0.00 | 86 | 1014.6 |
| 20260905003434 | 71 | 54 | 0.0 | 2.0 | 0.00 | 0.00 | 0.00 | 86 | 1014.6 |
| 20260905002448 | 71 | 54 | 0.0 | 0.0 | 0.00 | 0.00 | 0.00 | 86 | 1014.6 |
| 20260905001934 | 71 | 54 | 0.0 | 0.0 | 0.00 | 0.00 | 0.00 | 85 | 1014.7 |
| 20260905001434 | 71 | 54 | 0.0 | 0.0 | 0.00 | 0.00 | 0.00 | 85 | 1014.7 |
| 20260905000934 | 72 | 54 | 0.0 | 0.0 | 0.00 | 0.00 | 0.00 | 84 | 1014.7 |
| 20260905000434 | 72 | 54 | 0.0 | 0.0 | 0.00 | 0.00 | 0.00 | 84 | 1014.7 |
| 20260904235937 | 72 | 54 | 0.0 | 0.0 | 0.00 | 0.00 | 0.00 | 83 | 1014.7 |
| 20260904234934 | 72 | 54 | 2.0 | 3.0 | 0.00 | 0.00 | 0.00 | 83 | 1014.8 |
| 20260904234436 | 73 | 54 | 0.0 | 1.0 | 0.00 | 0.00 | 0.00 | 83 | 1014.8 |
| 20260904233950 | 73 | 54 | 1.0 | 3.0 | 0.00 | 0.00 | 0.00 | 83 | 1014.8 |
| 20260904232933 | 73 | 54 | 0.0 | 2.0 | 0.00 | 0.00 | 0.00 | 82 | 1014.9 |
| 20260904232434 | 73 | 54 | 1.0 | 2.0 | 0.00 | 0.00 | 0.00 | 82 | 1014.9 |
| 20260904231935 | 73 | 60 | 1.0 | 2.0 | 0.00 | 0.00 | 0.00 | 81 | 1014.9 |
| 20260904231436 | 73 | 60 | 0.0 | 0.0 | 0.00 | 0.00 | 0.00 | 81 | 1014.9 |
| 20260904230934 | 73 | 60 | 1.0 | 3.0 | 0.00 | 0.00 | 0.00 | 81 | 1014.9 |
| 20260904230433 | 74 | 50 | 1.0 | 3.0 | 0.00 | 0.00 | 0.00 | 80 | 1014.9 |
| 20260904225937 | 74 | 50 | 1.0 | 3.0 | 0.00 | 0.00 | 0.00 | 80 | 1015.0 |
| 20260904225433 | 74 | 50 | 0.0 | 2.0 | 0.00 | 0.00 | 0.00 | 79 | 1015.0 |
| 20260904224935 | 74 | 50 | 1.0 | 3.0 | 0.00 | 0.00 | 0.00 | 79 | 1014.9 |
| 20260904224433 | 74 | 50 | 2.0 | 3.0 | 0.00 | 0.00 | 0.00 | 79 | 1014.9 |
| 20260904223934 | 74 | 50 | 1.0 | 3.0 | 0.00 | 0.00 | 0.00 | 80 | 1015.0 |
| 20260904222934 | 74 | 41 | 2.0 | 3.0 | 0.00 | 0.00 | 0.00 | 80 | 1015.0 |
| 20260904222433 | 75 | 36 | 1.0 | 3.0 | 0.00 | 0.00 | 0.00 | 80 | 1015.0 |
| 20260904221933 | 75 | 36 | 1.0 | 3.0 | 0.00 | 0.00 | 0.00 | 80 | 1015.0 |
| 20260904220433 | 75 | 36 | 1.0 | 3.0 | 0.00 | 0.00 | 0.00 | 81 | 1014.9 |
| 20260904215934 | 75 | 36 | 2.0 | 3.0 | 0.00 | 0.00 | 0.00 | 80 | 1015.0 |
| 20260904215435 | 76 | 36 | 0.0 | 1.0 | 0.00 | 0.00 | 0.00 | 79 | 1014.9 |
| 20260904214949 | 76 | 36 | 2.0 | 5.0 | 0.00 | 0.00 | 0.00 | 79 | 1015.0 |
| 20260904214434 | 76 | 35 | 2.0 | 3.0 | 0.00 | 0.00 | 0.00 | 77 | 1014.9 |
| 20260904213933 | 76 | 31 | 1.0 | 2.0 | 0.00 | 0.00 | 0.00 | 78 | 1014.9 |
| 20260904211433 | 76 | 123 | 0.0 | 0.0 | 0.00 | 0.00 | 0.00 | 78 | 1014.8 |
| 20260904210933 | 76 | 123 | 0.0 | 0.0 | 0.00 | 0.00 | 0.00 | 79 | 1014.9 |
| 20260904210433 | 76 | 122 | 0.0 | 0.0 | 0.00 | 0.00 | 0.00 | 78 | 1014.9 |
| 20260904205433 | 77 | 122 | 0.0 | 1.0 | 0.00 | 0.00 | 0.00 | 77 | 1015.0 |
| 20260904203932 | 77 | 122 | 1.0 | 2.0 | 0.00 | 0.00 | 0.00 | 77 | 1015.1 |
| 20260904203433 | 77 | 122 | 2.0 | 3.0 | 0.00 | 0.00 | 0.00 | 76 | 1015.1 |
| 20260904202949 | 77 | 122 | 2.0 | 3.0 | 0.00 | 0.00 | 0.00 | 76 | 1015.1 |
| 20260904202433 | 77 | 122 | 1.0 | 2.0 | 0.00 | 0.00 | 0.00 | 76 | 1015.2 |
| 20260904201933 | 77 | 106 | 1.0 | 3.0 | 0.00 | 0.00 | 0.00 | 76 | 1015.2 |
| 20260904201433 | 78 | 123 | 2.0 | 3.0 | 0.00 | 0.00 | 0.00 | 75 | 1015.2 |
| 20260904200433 | 79 | 121 | 0.0 | 2.0 | 0.00 | 0.00 | 0.00 | 74 | 1015.2 |
| 20260904195433 | 79 | 121 | 0.0 | 0.0 | 0.00 | 0.00 | 0.00 | 75 | 1015.2 |
| 20260904194436 | 79 | 121 | 0.0 | 0.0 | 0.00 | 0.00 | 0.00 | 75 | 1015.2 |
| 20260904193933 | 79 | 121 | 0.0 | 0.0 | 0.00 | 0.00 | 0.00 | 75 | 1015.2 |
| 20260904193434 | 79 | 121 | 0.0 | 0.0 | 0.00 | 0.00 | 0.00 | 74 | 1015.2 |
| 20260904192932 | 80 | 120 | 0.0 | 0.0 | 0.00 | 0.00 | 0.00 | 74 | 1015.2 |
| 20260904192433 | 80 | 120 | 0.0 | 0.0 | 0.00 | 0.00 | 0.00 | 73 | 1015.2 |
| 20260904191438 | 80 | 120 | 0.0 | 0.0 | 0.00 | 0.00 | 0.00 | 72 | 1015.1 |
| 20260904190433 | 80 | 120 | 0.0 | 0.0 | 0.00 | 0.00 | 0.00 | 71 | 1015.1 |
| 20260904185940 | 80 | 120 | 0.0 | 0.0 | 0.00 | 0.00 | 0.00 | 70 | 1015.1 |
| 20260904185434 | 80 | 120 | 0.0 | 0.0 | 0.00 | 0.00 | 0.00 | 71 | 1015.0 |
| 20260904184932 | 81 | 120 | 0.0 | 0.0 | 0.00 | 0.00 | 0.00 | 71 | 1015.0 |
| 20260904183933 | 81 | 120 | 0.0 | 0.0 | 0.00 | 0.00 | 0.00 | 71 | 1015.0 |
| 20260904183436 | 82 | 120 | 0.0 | 0.0 | 0.00 | 0.00 | 0.00 | 71 | 1015.0 |
| 20260904182932 | 82 | 120 | 0.0 | 0.0 | 0.00 | 0.00 | 0.00 | 71 | 1014.9 |
| 20260904182433 | 82 | 120 | 0.0 | 0.0 | 0.00 | 0.00 | 0.00 | 70 | 1014.9 |
| 20260904180933 | 82 | 120 | 0.0 | 0.0 | 0.00 | 0.00 | 0.00 | 72 | 1014.7 |
| 20260904180433 | 82 | 120 | 0.0 | 0.0 | 0.00 | 0.00 | 0.00 | 71 | 1014.7 |
| 20260904175433 | 83 | 120 | 1.0 | 3.0 | 0.00 | 0.00 | 0.00 | 69 | 1014.5 |
| 20260904174433 | 85 | 96 | 1.0 | 2.0 | 0.00 | 0.00 | 0.00 | 68 | 1014.4 |
| 20260904173432 | 85 | 96 | 1.0 | 2.0 | 0.00 | 0.00 | 0.00 | 68 | 1014.5 |
| 20260904171434 | 87 | 66 | 2.0 | 3.0 | 0.00 | 0.00 | 0.00 | 61 | 1014.5 |
| 20260904170934 | 87 | 67 | 1.0 | 2.0 | 0.00 | 0.00 | 0.00 | 62 | 1014.5 |
| 20260904165933 | 89 | 67 | 1.0 | 3.0 | 0.00 | 0.00 | 0.00 | 58 | 1014.5 |
| 20260904165433 | 90 | 63 | 1.0 | 2.0 | 0.00 | 0.00 | 0.00 | 55 | 1014.5 |
| 20260904164932 | 90 | 71 | 2.0 | 3.0 | 0.00 | 0.00 | 0.00 | 53 | 1014.6 |
| 20260904164432 | 90 | 73 | 2.0 | 3.0 | 0.00 | 0.00 | 0.00 | 55 | 1014.6 |
| 20260904163432 | 90 | 78 | 1.0 | 3.0 | 0.00 | 0.00 | 0.00 | 55 | 1014.7 |
| 20260904162433 | 91 | 90 | 2.0 | 3.0 | 0.00 | 0.00 | 0.00 | 53 | 1014.8 |
| 20260904161932 | 91 | 88 | 2.0 | 5.0 | 0.00 | 0.00 | 0.00 | 53 | 1014.8 |
| 20260904161432 | 91 | 98 | 2.0 | 3.0 | 0.00 | 0.00 | 0.00 | 53 | 1014.8 |
| 20260904160435 | 91 | 106 | 2.0 | 5.0 | 0.00 | 0.00 | 0.00 | 52 | 1014.8 |
| 20260904155432 | 92 | 79 | 2.0 | 5.0 | 0.00 | 0.00 | 0.00 | 51 | 1014.9 |
| 20260904154932 | 92 | 78 | 3.0 | 5.0 | 0.00 | 0.00 | 0.00 | 52 | 1014.9 |
| 20260904153932 | 92 | 109 | 3.0 | 5.0 | 0.00 | 0.00 | 0.00 | 51 | 1015.0 |
| 20260904153433 | 92 | 96 | 3.0 | 5.0 | 0.00 | 0.00 | 0.00 | 49 | 1015.0 |
| 20260904152433 | 92 | 90 | 2.0 | 3.0 | 0.00 | 0.00 | 0.00 | 46 | 1015.0 |
| 20260904151932 | 92 | 121 | 2.0 | 5.0 | 0.00 | 0.00 | 0.00 | 50 | 1015.1 |
| 20260904150934 | 92 | 91 | 2.0 | 5.0 | 0.00 | 0.00 | 0.00 | 50 | 1015.1 |
| 20260904150432 | 92 | 94 | 3.0 | 6.0 | 0.00 | 0.00 | 0.00 | 49 | 1015.1 |
| 20260904145932 | 92 | 90 | 4.0 | 6.0 | 0.00 | 0.00 | 0.00 | 51 | 1015.1 |
| 20260904144931 | 93 | 112 | 2.0 | 6.0 | 0.00 | 0.00 | 0.00 | 50 | 1015.2 |
| 20260904144431 | 93 | 92 | 3.0 | 6.0 | 0.00 | 0.00 | 0.00 | 49 | 1015.2 |
| 20260904143432 | 93 | 76 | 5.0 | 7.0 | 0.00 | 0.00 | 0.00 | 49 | 1015.3 |
| 20260904142932 | 93 | 88 | 3.0 | 7.0 | 0.00 | 0.00 | 0.00 | 50 | 1015.4 |
| 20260904141933 | 92 | 88 | 2.0 | 5.0 | 0.00 | 0.00 | 0.00 | 47 | 1015.5 |
| 20260904140933 | 92 | 110 | 5.0 | 7.0 | 0.00 | 0.00 | 0.00 | 49 | 1015.5 |
| 20260904140432 | 92 | 111 | 3.0 | 8.0 | 0.00 | 0.00 | 0.00 | 51 | 1015.6 |
| 20260904134933 | 93 | 146 | 3.0 | 5.0 | 0.00 | 0.00 | 0.00 | 49 | 1015.8 |
| 20260904134434 | 93 | 96 | 2.0 | 5.0 | 0.00 | 0.00 | 0.00 | 49 | 1015.8 |
| 20260904133932 | 92 | 115 | 3.0 | 5.0 | 0.00 | 0.00 | 0.00 | 49 | 1015.9 |
| 20260904133432 | 92 | 98 | 3.0 | 6.0 | 0.00 | 0.00 | 0.00 | 52 | 1016.0 |
| 20260904132932 | 91 | 143 | 5.0 | 8.0 | 0.00 | 0.00 | 0.00 | 50 | 1016.0 |
| 20260904131932 | 91 | 71 | 5.0 | 9.0 | 0.00 | 0.00 | 0.00 | 52 | 1016.1 |
| 20260904131432 | 92 | 42 | 6.0 | 9.0 | 0.00 | 0.00 | 0.00 | 53 | 1016.2 |
| 20260904130932 | 92 | 71 | 5.0 | 9.0 | 0.00 | 0.00 | 0.00 | 52 | 1016.2 |
| 20260904130434 | 92 | 61 | 5.0 | 8.0 | 0.00 | 0.00 | 0.00 | 52 | 1016.2 |
| 20260904125932 | 92 | 83 | 3.0 | 7.0 | 0.00 | 0.00 | 0.00 | 52 | 1016.3 |
| 20260904125433 | 91 | 99 | 3.0 | 7.0 | 0.00 | 0.00 | 0.00 | 51 | 1016.4 |
| 20260904124932 | 91 | 172 | 2.0 | 5.0 | 0.00 | 0.00 | 0.00 | 52 | 1016.4 |
| 20260904124432 | 91 | 135 | 5.0 | 9.0 | 0.00 | 0.00 | 0.00 | 52 | 1016.5 |
| 20260904123932 | 91 | 89 | 4.0 | 8.0 | 0.00 | 0.00 | 0.00 | 54 | 1016.6 |
| 20260904123431 | 90 | 93 | 4.0 | 8.0 | 0.00 | 0.00 | 0.00 | 54 | 1016.6 |
| 20260904121932 | 90 | 113 | 6.0 | 10.0 | 0.00 | 0.00 | 0.00 | 54 | 1016.7 |
| 20260904121432 | 91 | 87 | 5.0 | 10.0 | 0.00 | 0.00 | 0.00 | 54 | 1016.7 |
| 20260904115443 | 90 | 213 | 2.0 | 3.0 | 0.00 | 0.00 | 0.00 | 55 | 1016.8 |
| 20260904114932 | 90 | 49 | 1.0 | 7.0 | 0.00 | 0.00 | 0.00 | 58 | 1016.9 |
| 20260904112933 | 89 | 187 | 3.0 | 8.0 | 0.00 | 0.00 | 0.00 | 57 | 1017.1 |
| 20260904112439 | 89 | 123 | 3.0 | 8.0 | 0.00 | 0.00 | 0.00 | 57 | 1017.1 |
| 20260904111931 | 89 | 68 | 3.0 | 8.0 | 0.00 | 0.00 | 0.00 | 57 | 1017.2 |
| 20260904111432 | 88 | 94 | 2.0 | 6.0 | 0.00 | 0.00 | 0.00 | 59 | 1017.3 |
| 20260904110934 | 87 | 91 | 3.0 | 7.0 | 0.00 | 0.00 | 0.00 | 58 | 1017.4 |
| 20260904110432 | 88 | 102 | 5.0 | 8.0 | 0.00 | 0.00 | 0.00 | 60 | 1017.4 |
| 20260904105931 | 88 | 125 | 5.0 | 7.0 | 0.00 | 0.00 | 0.00 | 59 | 1017.4 |
| 20260904105433 | 88 | 105 | 4.0 | 8.0 | 0.00 | 0.00 | 0.00 | 59 | 1017.5 |
| 20260904104931 | 88 | 54 | 3.0 | 6.0 | 0.00 | 0.00 | 0.00 | 62 | 1017.6 |
| 20260904104431 | 87 | 84 | 5.0 | 7.0 | 0.00 | 0.00 | 0.00 | 61 | 1017.7 |